owner,sensor,date,latitude,longitude,air_pressure(mBar),qcFlag 
TABS,ioos:station:wmo:42044:1,2011-08-01T00:00:00Z,26.1914,-97.0507,1015.68,11111222 
TABS,ioos:station:wmo:42044:1,2011-08-01T00:30:00Z,26.1914,-97.0507,1015.52,11111222 
TABS,ioos:station:wmo:42044:1,2011-08-01T01:00:00Z,26.1914,-97.0507,1015.46,11111222 
TABS,ioos:station:wmo:42044:1,2011-08-01T01:30:00Z,26.1914,-97.0507,1015.37,11111222 
TABS,ioos:station:wmo:42044:1,2011-08-01T02:00:00Z,26.1914,-97.0507,1015.44,11111222 
TABS,ioos:station:wmo:42044:1,2011-08-01T02:30:00Z,26.1914,-97.0507,1015.89,11111222 
TABS,ioos:station:wmo:42044:1,2011-08-01T03:00:00Z,26.1914,-97.0507,1015.99,11111222 
TABS,ioos:station:wmo:42044:1,2011-08-01T03:30:00Z,26.1914,-97.0507,1016.56,11111222 
TABS,ioos:station:wmo:42044:1,2011-08-01T04:00:00Z,26.1914,-97.0507,1016.72,11111222 
TABS,ioos:station:wmo:42044:1,2011-08-01T04:30:00Z,26.1914,-97.0507,1016.83,11111222 
TABS,ioos:station:wmo:42044:1,2011-08-01T05:00:00Z,26.1914,-97.0507,1016.73,11111222 
TABS,ioos:station:wmo:42044:1,2011-08-01T05:30:00Z,26.1914,-97.0507,1016.69,11111222 
TABS,ioos:station:wmo:42044:1,2011-08-01T06:00:00Z,26.1914,-97.0507,1016.51,11111222 
TABS,ioos:station:wmo:42044:1,2011-08-01T06:30:00Z,26.1914,-97.0507,1016.25,11111222 
TABS,ioos:station:wmo:42044:1,2011-08-01T07:00:00Z,26.1914,-97.0507,1016.03,11111222 
TABS,ioos:station:wmo:42044:1,2011-08-01T07:30:00Z,26.1914,-97.0507,1015.78,11111222 
TABS,ioos:station:wmo:42044:1,2011-08-01T08:00:00Z,26.1914,-97.0507,1015.7,11111222 
TABS,ioos:station:wmo:42044:1,2011-08-01T08:30:00Z,26.1914,-97.0507,1015.51,11111222 
TABS,ioos:station:wmo:42044:1,2011-08-01T09:00:00Z,26.1914,-97.0507,1015.61,11111222 
TABS,ioos:station:wmo:42044:1,2011-08-01T09:30:00Z,26.1914,-97.0507,1015.59,11111222 
TABS,ioos:station:wmo:42044:1,2011-08-01T10:00:00Z,26.1914,-97.0507,1015.49,11111222 
TABS,ioos:station:wmo:42044:1,2011-08-01T10:30:00Z,26.1914,-97.0507,1015.5,11111222 
TABS,ioos:station:wmo:42044:1,2011-08-01T11:00:00Z,26.1914,-97.0507,1015.71,11111222 
TABS,ioos:station:wmo:42044:1,2011-08-01T11:30:00Z,26.1914,-97.0507,1015.79,11111222 
TABS,ioos:station:wmo:42044:1,2011-08-01T12:00:00Z,26.1914,-97.0507,1016.19,11111222 
TABS,ioos:station:wmo:42044:1,2011-08-01T12:30:00Z,26.1914,-97.0507,1016.33,11111222 
TABS,ioos:station:wmo:42044:1,2011-08-01T13:00:00Z,26.1914,-97.0507,1016.55,11111222 
TABS,ioos:station:wmo:42044:1,2011-08-01T13:30:00Z,26.1914,-97.0507,1016.93,11111222 
TABS,ioos:station:wmo:42044:1,2011-08-01T14:00:00Z,26.1914,-97.0507,1017.11,11111222 
TABS,ioos:station:wmo:42044:1,2011-08-01T14:30:00Z,26.1914,-97.0507,1017.14,11111222 
TABS,ioos:station:wmo:42044:1,2011-08-01T15:00:00Z,26.1914,-97.0507,1017.17,11111222 
TABS,ioos:station:wmo:42044:1,2011-08-01T15:30:00Z,26.1914,-97.0507,1017.32,11111222 
TABS,ioos:station:wmo:42044:1,2011-08-01T16:00:00Z,26.1914,-97.0507,1017.29,11111222 
TABS,ioos:station:wmo:42044:1,2011-08-01T16:30:00Z,26.1914,-97.0507,1017.1,11111222 
TABS,ioos:station:wmo:42044:1,2011-08-01T17:00:00Z,26.1914,-97.0507,1016.92,11111222 
TABS,ioos:station:wmo:42044:1,2011-08-01T17:30:00Z,26.1914,-97.0507,1016.74,11111222 
TABS,ioos:station:wmo:42044:1,2011-08-01T18:00:00Z,26.1914,-97.0507,1016.49,11111222 
TABS,ioos:station:wmo:42044:1,2011-08-01T18:30:00Z,26.1914,-97.0507,1016.17,11111222 
TABS,ioos:station:wmo:42044:1,2011-08-01T19:00:00Z,26.1914,-97.0507,1015.7,11111222 
TABS,ioos:station:wmo:42044:1,2011-08-01T19:30:00Z,26.1914,-97.0507,1015.53,11111222 
TABS,ioos:station:wmo:42044:1,2011-08-01T20:00:00Z,26.1914,-97.0507,1015.19,11111222 
TABS,ioos:station:wmo:42044:1,2011-08-01T20:30:00Z,26.1914,-97.0507,1014.9,11111222 
TABS,ioos:station:wmo:42044:1,2011-08-01T21:00:00Z,26.1914,-97.0507,1014.56,11111222 
TABS,ioos:station:wmo:42044:1,2011-08-01T21:30:00Z,26.1914,-97.0507,1014.28,11111222 
TABS,ioos:station:wmo:42044:1,2011-08-01T22:00:00Z,26.1914,-97.0507,1014.08,11111222 
TABS,ioos:station:wmo:42044:1,2011-08-01T22:30:00Z,26.1914,-97.0507,1013.96,11111222 
TABS,ioos:station:wmo:42044:1,2011-08-01T23:00:00Z,26.1914,-97.0507,1013.69,11111222 
TABS,ioos:station:wmo:42044:1,2011-08-01T23:30:00Z,26.1914,-97.0507,1013.66,11111222 
TABS,ioos:station:wmo:42044:1,2011-08-02T00:00:00Z,26.1914,-97.0507,1013.6,11111222 
TABS,ioos:station:wmo:42044:1,2011-08-02T00:30:00Z,26.1914,-97.0507,1013.64,11111222 
TABS,ioos:station:wmo:42044:1,2011-08-02T01:00:00Z,26.1914,-97.0507,1013.7,11111222 
TABS,ioos:station:wmo:42044:1,2011-08-02T01:30:00Z,26.1914,-97.0507,1013.53,11111222 
TABS,ioos:station:wmo:42044:1,2011-08-02T02:00:00Z,26.1914,-97.0507,1013.36,11111222 
TABS,ioos:station:wmo:42044:1,2011-08-02T02:30:00Z,26.1914,-97.0507,1013.55,11111222 
TABS,ioos:station:wmo:42044:1,2011-08-02T03:00:00Z,26.1914,-97.0507,1014.06,11111222 
TABS,ioos:station:wmo:42044:1,2011-08-02T03:30:00Z,26.1914,-97.0507,1014.27,11111222 
TABS,ioos:station:wmo:42044:1,2011-08-02T04:00:00Z,26.1914,-97.0507,1014.41,11111222 
TABS,ioos:station:wmo:42044:1,2011-08-02T04:30:00Z,26.1914,-97.0507,1014.48,11111222 
TABS,ioos:station:wmo:42044:1,2011-08-02T05:00:00Z,26.1914,-97.0507,1014.15,11111222 
TABS,ioos:station:wmo:42044:1,2011-08-02T05:30:00Z,26.1914,-97.0507,1013.83,11111222 
TABS,ioos:station:wmo:42044:1,2011-08-02T06:00:00Z,26.1914,-97.0507,1013.84,11111222 
TABS,ioos:station:wmo:42044:1,2011-08-02T06:30:00Z,26.1914,-97.0507,1013.71,11111222 
TABS,ioos:station:wmo:42044:1,2011-08-02T07:00:00Z,26.1914,-97.0507,1013.64,11111222 
TABS,ioos:station:wmo:42044:1,2011-08-02T07:30:00Z,26.1914,-97.0507,1013.16,11111222 
TABS,ioos:station:wmo:42044:1,2011-08-02T08:00:00Z,26.1914,-97.0507,1012.96,11111222 
TABS,ioos:station:wmo:42044:1,2011-08-02T08:30:00Z,26.1914,-97.0507,1012.94,11111222 
TABS,ioos:station:wmo:42044:1,2011-08-02T09:00:00Z,26.1914,-97.0507,1012.64,11111222 
TABS,ioos:station:wmo:42044:1,2011-08-02T09:30:00Z,26.1914,-97.0507,1012.41,11111222 
TABS,ioos:station:wmo:42044:1,2011-08-02T10:00:00Z,26.1914,-97.0507,1012.28,11111222 
TABS,ioos:station:wmo:42044:1,2011-08-02T10:30:00Z,26.1914,-97.0507,1012.36,11111222 
TABS,ioos:station:wmo:42044:1,2011-08-02T11:00:00Z,26.1914,-97.0507,1012.32,11111222 
TABS,ioos:station:wmo:42044:1,2011-08-02T11:30:00Z,26.1914,-97.0507,1012.45,11111222 
TABS,ioos:station:wmo:42044:1,2011-08-02T12:00:00Z,26.1914,-97.0507,1012.68,11111222 
TABS,ioos:station:wmo:42044:1,2011-08-02T12:30:00Z,26.1914,-97.0507,1013.02,11111222 
TABS,ioos:station:wmo:42044:1,2011-08-02T13:00:00Z,26.1914,-97.0507,1013.27,11111222 
TABS,ioos:station:wmo:42044:1,2011-08-02T13:30:00Z,26.1914,-97.0507,1013.6,11111222 
TABS,ioos:station:wmo:42044:1,2011-08-02T14:00:00Z,26.1914,-97.0507,1013.74,11111222 
TABS,ioos:station:wmo:42044:1,2011-08-02T14:30:00Z,26.1914,-97.0507,1014.01,11111222 
TABS,ioos:station:wmo:42044:1,2011-08-02T15:00:00Z,26.1914,-97.0507,1014.22,11111222 
TABS,ioos:station:wmo:42044:1,2011-08-02T15:30:00Z,26.1914,-97.0507,1014.23,11111222 
TABS,ioos:station:wmo:42044:1,2011-08-02T16:00:00Z,26.1914,-97.0507,1014.33,11111222 
TABS,ioos:station:wmo:42044:1,2011-08-02T16:30:00Z,26.1914,-97.0507,1014.33,11111222 
TABS,ioos:station:wmo:42044:1,2011-08-02T17:00:00Z,26.1914,-97.0507,1014.16,11111222 
TABS,ioos:station:wmo:42044:1,2011-08-02T17:30:00Z,26.1914,-97.0507,1013.74,11111222 
TABS,ioos:station:wmo:42044:1,2011-08-02T18:00:00Z,26.1914,-97.0507,1013.52,11111222 
TABS,ioos:station:wmo:42044:1,2011-08-02T18:30:00Z,26.1914,-97.0507,1013.39,11111222 
TABS,ioos:station:wmo:42044:1,2011-08-02T19:00:00Z,26.1914,-97.0507,1013.14,11111222 
TABS,ioos:station:wmo:42044:1,2011-08-02T19:30:00Z,26.1914,-97.0507,1012.95,11111222 
TABS,ioos:station:wmo:42044:1,2011-08-02T20:00:00Z,26.1914,-97.0507,1012.61,11111222 
TABS,ioos:station:wmo:42044:1,2011-08-02T20:30:00Z,26.1914,-97.0507,1012.25,11111222 
TABS,ioos:station:wmo:42044:1,2011-08-02T21:00:00Z,26.1914,-97.0507,1012.14,11111222 
TABS,ioos:station:wmo:42044:1,2011-08-02T21:30:00Z,26.1914,-97.0507,1012.07,11111222 
TABS,ioos:station:wmo:42044:1,2011-08-02T22:00:00Z,26.1914,-97.0507,1011.81,11111222 
TABS,ioos:station:wmo:42044:1,2011-08-02T22:30:00Z,26.1914,-97.0507,1011.73,11111222 
TABS,ioos:station:wmo:42044:1,2011-08-02T23:00:00Z,26.1914,-97.0507,1011.57,11111222 
TABS,ioos:station:wmo:42044:1,2011-08-02T23:30:00Z,26.1914,-97.0507,1011.57,11111222 
TABS,ioos:station:wmo:42044:1,2011-08-03T00:00:00Z,26.1914,-97.0507,1011.57,11111222 
TABS,ioos:station:wmo:42044:1,2011-08-03T00:30:00Z,26.1914,-97.0507,1011.59,11111222 
TABS,ioos:station:wmo:42044:1,2011-08-03T01:00:00Z,26.1914,-97.0507,1011.62,11111222 
TABS,ioos:station:wmo:42044:1,2011-08-03T01:30:00Z,26.1914,-97.0507,1011.76,11111222 
TABS,ioos:station:wmo:42044:1,2011-08-03T02:00:00Z,26.1914,-97.0507,1011.82,11111222 
TABS,ioos:station:wmo:42044:1,2011-08-03T02:30:00Z,26.1914,-97.0507,1012.04,11111222 
TABS,ioos:station:wmo:42044:1,2011-08-03T03:00:00Z,26.1914,-97.0507,1012.17,11111222 
TABS,ioos:station:wmo:42044:1,2011-08-03T03:30:00Z,26.1914,-97.0507,1012.47,11111222 
TABS,ioos:station:wmo:42044:1,2011-08-03T04:00:00Z,26.1914,-97.0507,1012.51,11111222 
TABS,ioos:station:wmo:42044:1,2011-08-03T04:30:00Z,26.1914,-97.0507,1012.67,11111222 
TABS,ioos:station:wmo:42044:1,2011-08-03T05:00:00Z,26.1914,-97.0507,1012.59,11111222 
TABS,ioos:station:wmo:42044:1,2011-08-03T05:30:00Z,26.1914,-97.0507,1012.38,11111222 
TABS,ioos:station:wmo:42044:1,2011-08-03T06:00:00Z,26.1914,-97.0507,1012.08,11111222 
TABS,ioos:station:wmo:42044:1,2011-08-03T06:30:00Z,26.1914,-97.0507,1012.0,11111222 
TABS,ioos:station:wmo:42044:1,2011-08-03T07:00:00Z,26.1914,-97.0507,1011.85,11111222 
TABS,ioos:station:wmo:42044:1,2011-08-03T07:30:00Z,26.1914,-97.0507,1011.54,11111222 
TABS,ioos:station:wmo:42044:1,2011-08-03T08:00:00Z,26.1914,-97.0507,1011.36,11111222 
TABS,ioos:station:wmo:42044:1,2011-08-03T08:30:00Z,26.1914,-97.0507,1011.28,11111222 
TABS,ioos:station:wmo:42044:1,2011-08-03T09:00:00Z,26.1914,-97.0507,1011.08,11111222 
TABS,ioos:station:wmo:42044:1,2011-08-03T09:30:00Z,26.1914,-97.0507,1010.99,11111222 
TABS,ioos:station:wmo:42044:1,2011-08-03T10:00:00Z,26.1914,-97.0507,1010.91,11111222 
TABS,ioos:station:wmo:42044:1,2011-08-03T10:30:00Z,26.1914,-97.0507,1011.05,11111222 
TABS,ioos:station:wmo:42044:1,2011-08-03T11:00:00Z,26.1914,-97.0507,1011.14,11111222 
TABS,ioos:station:wmo:42044:1,2011-08-03T11:30:00Z,26.1914,-97.0507,1011.19,11111222 
TABS,ioos:station:wmo:42044:1,2011-08-03T12:00:00Z,26.1914,-97.0507,1011.48,11111222 
TABS,ioos:station:wmo:42044:1,2011-08-03T12:30:00Z,26.1914,-97.0507,1011.79,11111222 
TABS,ioos:station:wmo:42044:1,2011-08-03T13:00:00Z,26.1914,-97.0507,1012.13,11111222 
TABS,ioos:station:wmo:42044:1,2011-08-03T13:30:00Z,26.1914,-97.0507,1012.45,11111222 
TABS,ioos:station:wmo:42044:1,2011-08-03T14:00:00Z,26.1914,-97.0507,1012.57,11111222 
TABS,ioos:station:wmo:42044:1,2011-08-03T14:30:00Z,26.1914,-97.0507,1012.76,11111222 
TABS,ioos:station:wmo:42044:1,2011-08-03T15:00:00Z,26.1914,-97.0507,1013.0,11111222 
TABS,ioos:station:wmo:42044:1,2011-08-03T15:30:00Z,26.1914,-97.0507,1013.22,11111222 
TABS,ioos:station:wmo:42044:1,2011-08-03T16:00:00Z,26.1914,-97.0507,1013.35,11111222 
TABS,ioos:station:wmo:42044:1,2011-08-03T16:30:00Z,26.1914,-97.0507,1013.31,11111222 
TABS,ioos:station:wmo:42044:1,2011-08-03T17:00:00Z,26.1914,-97.0507,1013.14,11111222 
TABS,ioos:station:wmo:42044:1,2011-08-03T17:30:00Z,26.1914,-97.0507,1013.01,11111222 
TABS,ioos:station:wmo:42044:1,2011-08-03T18:00:00Z,26.1914,-97.0507,1012.59,11111222 
TABS,ioos:station:wmo:42044:1,2011-08-03T18:30:00Z,26.1914,-97.0507,1012.23,11111222 
TABS,ioos:station:wmo:42044:1,2011-08-03T19:00:00Z,26.1914,-97.0507,1011.93,11111222 
TABS,ioos:station:wmo:42044:1,2011-08-03T19:30:00Z,26.1914,-97.0507,1011.72,11111222 
TABS,ioos:station:wmo:42044:1,2011-08-03T20:00:00Z,26.1914,-97.0507,1011.52,11111222 
TABS,ioos:station:wmo:42044:1,2011-08-03T20:30:00Z,26.1914,-97.0507,1011.37,11111222 
TABS,ioos:station:wmo:42044:1,2011-08-03T21:00:00Z,26.1914,-97.0507,1011.15,11111222 
TABS,ioos:station:wmo:42044:1,2011-08-03T21:30:00Z,26.1914,-97.0507,1011.01,11111222 
TABS,ioos:station:wmo:42044:1,2011-08-03T22:00:00Z,26.1914,-97.0507,1010.69,11111222 
TABS,ioos:station:wmo:42044:1,2011-08-03T22:30:00Z,26.1914,-97.0507,1010.68,11111222 
TABS,ioos:station:wmo:42044:1,2011-08-03T23:00:00Z,26.1914,-97.0507,1010.49,11111222 
TABS,ioos:station:wmo:42044:1,2011-08-03T23:30:00Z,26.1914,-97.0507,1010.39,11111222 
TABS,ioos:station:wmo:42044:1,2011-08-04T00:00:00Z,26.1914,-97.0507,1010.36,11111222 
TABS,ioos:station:wmo:42044:1,2011-08-04T00:30:00Z,26.1914,-97.0507,1010.34,11111222 
TABS,ioos:station:wmo:42044:1,2011-08-04T01:00:00Z,26.1914,-97.0507,1010.56,11111222 
TABS,ioos:station:wmo:42044:1,2011-08-04T01:30:00Z,26.1914,-97.0507,1010.55,11111222 
TABS,ioos:station:wmo:42044:1,2011-08-04T02:00:00Z,26.1914,-97.0507,1010.73,11111222 
TABS,ioos:station:wmo:42044:1,2011-08-04T02:30:00Z,26.1914,-97.0507,1010.91,11111222 
TABS,ioos:station:wmo:42044:1,2011-08-04T03:00:00Z,26.1914,-97.0507,1011.02,11111222 
TABS,ioos:station:wmo:42044:1,2011-08-04T03:30:00Z,26.1914,-97.0507,1011.17,11111222 
TABS,ioos:station:wmo:42044:1,2011-08-04T04:00:00Z,26.1914,-97.0507,1011.38,11111222 
TABS,ioos:station:wmo:42044:1,2011-08-04T04:30:00Z,26.1914,-97.0507,1011.48,11111222 
TABS,ioos:station:wmo:42044:1,2011-08-04T05:00:00Z,26.1914,-97.0507,1011.51,11111222 
TABS,ioos:station:wmo:42044:1,2011-08-04T05:30:00Z,26.1914,-97.0507,1011.53,11111222 
TABS,ioos:station:wmo:42044:1,2011-08-04T06:00:00Z,26.1914,-97.0507,1011.59,11111222 
TABS,ioos:station:wmo:42044:1,2011-08-04T06:30:00Z,26.1914,-97.0507,1011.42,11111222 
TABS,ioos:station:wmo:42044:1,2011-08-04T07:00:00Z,26.1914,-97.0507,1011.37,11111222 
TABS,ioos:station:wmo:42044:1,2011-08-04T07:30:00Z,26.1914,-97.0507,1011.3,11111222 
TABS,ioos:station:wmo:42044:1,2011-08-04T08:00:00Z,26.1914,-97.0507,1011.14,11111222 
TABS,ioos:station:wmo:42044:1,2011-08-04T08:30:00Z,26.1914,-97.0507,1010.77,11111222 
TABS,ioos:station:wmo:42044:1,2011-08-04T09:00:00Z,26.1914,-97.0507,1010.83,11111222 
TABS,ioos:station:wmo:42044:1,2011-08-04T09:30:00Z,26.1914,-97.0507,1011.13,11111222 
TABS,ioos:station:wmo:42044:1,2011-08-04T10:00:00Z,26.1914,-97.0507,1010.96,11111222 
TABS,ioos:station:wmo:42044:1,2011-08-04T10:30:00Z,26.1914,-97.0507,1011.05,11111222 
TABS,ioos:station:wmo:42044:1,2011-08-04T11:00:00Z,26.1914,-97.0507,1011.05,11111222 
TABS,ioos:station:wmo:42044:1,2011-08-04T11:30:00Z,26.1914,-97.0507,1011.22,11111222 
TABS,ioos:station:wmo:42044:1,2011-08-04T12:00:00Z,26.1914,-97.0507,1011.45,11111222 
TABS,ioos:station:wmo:42044:1,2011-08-04T12:30:00Z,26.1914,-97.0507,1011.72,11111222 
TABS,ioos:station:wmo:42044:1,2011-08-04T13:00:00Z,26.1914,-97.0507,1012.03,11111222 
TABS,ioos:station:wmo:42044:1,2011-08-04T13:30:00Z,26.1914,-97.0507,1012.23,11111222 
TABS,ioos:station:wmo:42044:1,2011-08-04T14:00:00Z,26.1914,-97.0507,1012.23,11111222 
TABS,ioos:station:wmo:42044:1,2011-08-04T14:30:00Z,26.1914,-97.0507,1012.08,11111222 
TABS,ioos:station:wmo:42044:1,2011-08-04T15:00:00Z,26.1914,-97.0507,1012.46,11111222 
TABS,ioos:station:wmo:42044:1,2011-08-04T15:30:00Z,26.1914,-97.0507,1012.71,11111222 
TABS,ioos:station:wmo:42044:1,2011-08-04T16:00:00Z,26.1914,-97.0507,1012.76,11111222 
TABS,ioos:station:wmo:42044:1,2011-08-04T16:30:00Z,26.1914,-97.0507,1012.88,11111222 
TABS,ioos:station:wmo:42044:1,2011-08-04T17:00:00Z,26.1914,-97.0507,1012.97,11111222 
TABS,ioos:station:wmo:42044:1,2011-08-04T17:30:00Z,26.1914,-97.0507,1012.95,11111222 
TABS,ioos:station:wmo:42044:1,2011-08-04T18:00:00Z,26.1914,-97.0507,1012.84,11111222 
TABS,ioos:station:wmo:42044:1,2011-08-04T18:30:00Z,26.1914,-97.0507,1012.9,11111222 
TABS,ioos:station:wmo:42044:1,2011-08-04T19:00:00Z,26.1914,-97.0507,1012.67,11111222 
TABS,ioos:station:wmo:42044:1,2011-08-04T19:30:00Z,26.1914,-97.0507,1012.37,11111222 
TABS,ioos:station:wmo:42044:1,2011-08-04T20:00:00Z,26.1914,-97.0507,1012.19,11111222 
TABS,ioos:station:wmo:42044:1,2011-08-04T20:30:00Z,26.1914,-97.0507,1012.01,11111222 
TABS,ioos:station:wmo:42044:1,2011-08-04T21:00:00Z,26.1914,-97.0507,1011.78,11111222 
TABS,ioos:station:wmo:42044:1,2011-08-04T21:30:00Z,26.1914,-97.0507,1011.59,11111222 
TABS,ioos:station:wmo:42044:1,2011-08-04T22:00:00Z,26.1914,-97.0507,1011.4,11111222 
TABS,ioos:station:wmo:42044:1,2011-08-04T22:30:00Z,26.1914,-97.0507,1011.5,11111222 
TABS,ioos:station:wmo:42044:1,2011-08-04T23:00:00Z,26.1914,-97.0507,1011.29,11111222 
TABS,ioos:station:wmo:42044:1,2011-08-04T23:30:00Z,26.1914,-97.0507,1011.19,11111222 
TABS,ioos:station:wmo:42044:1,2011-08-05T00:00:00Z,26.1914,-97.0507,1011.14,11111222 
TABS,ioos:station:wmo:42044:1,2011-08-05T00:30:00Z,26.1914,-97.0507,1011.3,11111222 
TABS,ioos:station:wmo:42044:1,2011-08-05T01:00:00Z,26.1914,-97.0507,1011.53,11111222 
TABS,ioos:station:wmo:42044:1,2011-08-05T01:30:00Z,26.1914,-97.0507,1011.56,11111222 
TABS,ioos:station:wmo:42044:1,2011-08-05T02:00:00Z,26.1914,-97.0507,1011.7,11111222 
TABS,ioos:station:wmo:42044:1,2011-08-05T02:30:00Z,26.1914,-97.0507,1011.83,11111222 
TABS,ioos:station:wmo:42044:1,2011-08-05T03:00:00Z,26.1914,-97.0507,1011.74,11111222 
TABS,ioos:station:wmo:42044:1,2011-08-05T03:30:00Z,26.1914,-97.0507,1012.29,11111222 
TABS,ioos:station:wmo:42044:1,2011-08-05T04:00:00Z,26.1914,-97.0507,1012.26,11111222 
TABS,ioos:station:wmo:42044:1,2011-08-05T04:30:00Z,26.1914,-97.0507,1012.22,11111222 
TABS,ioos:station:wmo:42044:1,2011-08-05T05:00:00Z,26.1914,-97.0507,1012.5,11111222 
TABS,ioos:station:wmo:42044:1,2011-08-05T05:30:00Z,26.1914,-97.0507,1012.69,11111222 
TABS,ioos:station:wmo:42044:1,2011-08-05T06:00:00Z,26.1914,-97.0507,1012.85,11111222 
TABS,ioos:station:wmo:42044:1,2011-08-05T06:30:00Z,26.1914,-97.0507,1012.59,11111222 
TABS,ioos:station:wmo:42044:1,2011-08-05T07:00:00Z,26.1914,-97.0507,1012.42,11111222 
TABS,ioos:station:wmo:42044:1,2011-08-05T07:30:00Z,26.1914,-97.0507,1012.32,11111222 
TABS,ioos:station:wmo:42044:1,2011-08-05T08:00:00Z,26.1914,-97.0507,1012.11,11111222 
TABS,ioos:station:wmo:42044:1,2011-08-05T08:30:00Z,26.1914,-97.0507,1011.83,11111222 
TABS,ioos:station:wmo:42044:1,2011-08-05T09:00:00Z,26.1914,-97.0507,1011.73,11111222 
TABS,ioos:station:wmo:42044:1,2011-08-05T09:30:00Z,26.1914,-97.0507,1011.53,11111222 
TABS,ioos:station:wmo:42044:1,2011-08-05T10:00:00Z,26.1914,-97.0507,1011.54,11111222 
TABS,ioos:station:wmo:42044:1,2011-08-05T10:30:00Z,26.1914,-97.0507,1011.58,11111222 
TABS,ioos:station:wmo:42044:1,2011-08-05T11:00:00Z,26.1914,-97.0507,1011.87,11111222 
TABS,ioos:station:wmo:42044:1,2011-08-05T11:30:00Z,26.1914,-97.0507,1012.06,11111222 
TABS,ioos:station:wmo:42044:1,2011-08-05T12:00:00Z,26.1914,-97.0507,1012.15,11111222 
TABS,ioos:station:wmo:42044:1,2011-08-05T12:30:00Z,26.1914,-97.0507,1012.25,11111222 
TABS,ioos:station:wmo:42044:1,2011-08-05T13:00:00Z,26.1914,-97.0507,1012.49,11111222 
TABS,ioos:station:wmo:42044:1,2011-08-05T13:30:00Z,26.1914,-97.0507,1012.98,11111222 
TABS,ioos:station:wmo:42044:1,2011-08-05T14:00:00Z,26.1914,-97.0507,1012.99,11111222 
TABS,ioos:station:wmo:42044:1,2011-08-05T14:30:00Z,26.1914,-97.0507,1013.1,11111222 
TABS,ioos:station:wmo:42044:1,2011-08-05T15:00:00Z,26.1914,-97.0507,1013.3,11111222 
TABS,ioos:station:wmo:42044:1,2011-08-05T15:30:00Z,26.1914,-97.0507,1013.27,11111222 
TABS,ioos:station:wmo:42044:1,2011-08-05T16:00:00Z,26.1914,-97.0507,1013.55,11111222 
TABS,ioos:station:wmo:42044:1,2011-08-05T16:30:00Z,26.1914,-97.0507,1013.46,11111222 
TABS,ioos:station:wmo:42044:1,2011-08-05T17:00:00Z,26.1914,-97.0507,1013.47,11111222 
TABS,ioos:station:wmo:42044:1,2011-08-05T17:30:00Z,26.1914,-97.0507,1013.54,11111222 
TABS,ioos:station:wmo:42044:1,2011-08-05T18:00:00Z,26.1914,-97.0507,1013.21,11111222 
TABS,ioos:station:wmo:42044:1,2011-08-05T18:30:00Z,26.1914,-97.0507,1013.13,11111222 
TABS,ioos:station:wmo:42044:1,2011-08-05T19:00:00Z,26.1914,-97.0507,1012.96,11111222 
TABS,ioos:station:wmo:42044:1,2011-08-05T19:30:00Z,26.1914,-97.0507,1012.8,11111222 
TABS,ioos:station:wmo:42044:1,2011-08-05T20:00:00Z,26.1914,-97.0507,1012.64,11111222 
TABS,ioos:station:wmo:42044:1,2011-08-05T20:30:00Z,26.1914,-97.0507,1012.43,11111222 
TABS,ioos:station:wmo:42044:1,2011-08-05T21:00:00Z,26.1914,-97.0507,1012.21,11111222 
TABS,ioos:station:wmo:42044:1,2011-08-05T21:30:00Z,26.1914,-97.0507,1011.97,11111222 
TABS,ioos:station:wmo:42044:1,2011-08-05T22:00:00Z,26.1914,-97.0507,1011.96,11111222 
TABS,ioos:station:wmo:42044:1,2011-08-05T22:30:00Z,26.1914,-97.0507,1011.68,11111222 
TABS,ioos:station:wmo:42044:1,2011-08-05T23:00:00Z,26.1914,-97.0507,1011.38,11111222 
TABS,ioos:station:wmo:42044:1,2011-08-05T23:30:00Z,26.1914,-97.0507,1011.28,11111222 
TABS,ioos:station:wmo:42044:1,2011-08-06T00:00:00Z,26.1914,-97.0507,1011.42,11111222 
TABS,ioos:station:wmo:42044:1,2011-08-06T00:30:00Z,26.1914,-97.0507,1011.41,11111222 
TABS,ioos:station:wmo:42044:1,2011-08-06T01:00:00Z,26.1914,-97.0507,1011.2,11111222 
TABS,ioos:station:wmo:42044:1,2011-08-06T01:30:00Z,26.1914,-97.0507,1011.45,11111222 
TABS,ioos:station:wmo:42044:1,2011-08-06T02:00:00Z,26.1914,-97.0507,1011.74,11111222 
TABS,ioos:station:wmo:42044:1,2011-08-06T02:30:00Z,26.1914,-97.0507,1012.01,11111222 
TABS,ioos:station:wmo:42044:1,2011-08-06T03:00:00Z,26.1914,-97.0507,1012.1,11111222 
TABS,ioos:station:wmo:42044:1,2011-08-06T03:30:00Z,26.1914,-97.0507,1012.36,11111222 
TABS,ioos:station:wmo:42044:1,2011-08-06T04:00:00Z,26.1914,-97.0507,1012.76,11111222 
TABS,ioos:station:wmo:42044:1,2011-08-06T04:30:00Z,26.1914,-97.0507,1012.8,11111222 
TABS,ioos:station:wmo:42044:1,2011-08-06T05:00:00Z,26.1914,-97.0507,1012.86,11111222 
TABS,ioos:station:wmo:42044:1,2011-08-06T05:30:00Z,26.1914,-97.0507,1012.88,11111222 
TABS,ioos:station:wmo:42044:1,2011-08-06T06:00:00Z,26.1914,-97.0507,1012.75,11111222 
TABS,ioos:station:wmo:42044:1,2011-08-06T06:30:00Z,26.1914,-97.0507,1012.73,11111222 
TABS,ioos:station:wmo:42044:1,2011-08-06T07:00:00Z,26.1914,-97.0507,1012.71,11111222 
TABS,ioos:station:wmo:42044:1,2011-08-06T07:30:00Z,26.1914,-97.0507,1012.49,11111222 
TABS,ioos:station:wmo:42044:1,2011-08-06T08:00:00Z,26.1914,-97.0507,1012.48,11111222 
TABS,ioos:station:wmo:42044:1,2011-08-06T08:30:00Z,26.1914,-97.0507,1012.27,11111222 
TABS,ioos:station:wmo:42044:1,2011-08-06T09:00:00Z,26.1914,-97.0507,1012.12,11111222 
TABS,ioos:station:wmo:42044:1,2011-08-06T09:30:00Z,26.1914,-97.0507,1011.89,11111222 
TABS,ioos:station:wmo:42044:1,2011-08-06T10:00:00Z,26.1914,-97.0507,1011.67,11111222 
TABS,ioos:station:wmo:42044:1,2011-08-06T10:30:00Z,26.1914,-97.0507,1011.85,11111222 
TABS,ioos:station:wmo:42044:1,2011-08-06T11:00:00Z,26.1914,-97.0507,1011.85,11111222 
TABS,ioos:station:wmo:42044:1,2011-08-06T11:30:00Z,26.1914,-97.0507,1012.19,11111222 
TABS,ioos:station:wmo:42044:1,2011-08-06T12:00:00Z,26.1914,-97.0507,1012.49,11111222 
TABS,ioos:station:wmo:42044:1,2011-08-06T12:30:00Z,26.1914,-97.0507,1012.69,11111222 
TABS,ioos:station:wmo:42044:1,2011-08-06T13:00:00Z,26.1914,-97.0507,1013.03,11111222 
TABS,ioos:station:wmo:42044:1,2011-08-06T13:30:00Z,26.1914,-97.0507,1013.18,11111222 
TABS,ioos:station:wmo:42044:1,2011-08-06T14:00:00Z,26.1914,-97.0507,1013.49,11111222 
TABS,ioos:station:wmo:42044:1,2011-08-06T14:30:00Z,26.1914,-97.0507,1013.71,11111222 
TABS,ioos:station:wmo:42044:1,2011-08-06T15:00:00Z,26.1914,-97.0507,1013.88,11111222 
TABS,ioos:station:wmo:42044:1,2011-08-06T15:30:00Z,26.1914,-97.0507,1014.06,11111222 
TABS,ioos:station:wmo:42044:1,2011-08-06T16:00:00Z,26.1914,-97.0507,1013.9,11111222 
TABS,ioos:station:wmo:42044:1,2011-08-06T16:30:00Z,26.1914,-97.0507,1013.83,11111222 
TABS,ioos:station:wmo:42044:1,2011-08-06T17:00:00Z,26.1914,-97.0507,1013.85,11111222 
TABS,ioos:station:wmo:42044:1,2011-08-06T17:30:00Z,26.1914,-97.0507,1013.84,11111222 
TABS,ioos:station:wmo:42044:1,2011-08-06T18:00:00Z,26.1914,-97.0507,1013.61,11111222 
TABS,ioos:station:wmo:42044:1,2011-08-06T18:30:00Z,26.1914,-97.0507,1013.4,11111222 